Погода в Крылове

Россия / Калининградская область     54°19′51″N   21°33′07″E
темп.,
°C
ветер,
м/с
пор.,
м/с
влажн.,
%
обл.,
%
осадки,
мм/ч
давл.,
гПа
погр.,
м
20 сентября, пн
пн2023:00+7ссв5978100 0.0 10171052
02:00+6ссв5882100 0.1 1017895
05:00+6с5987100 0.1 1017846
08:00+5ссв5888100 0.3 1018881
11:00+5с5894100 0.1 1019704
14:00+10с5863100 0.1 10191413
17:00+11сз3762100 0.0 1018457
20:00+5в22875 0.0 102019
21 сентября, вт
вт2123:00+4с00885 0.0 102110
02:00+3ссз22925 0.0 102117
05:00+2ссз229423 0.0 102136
08:00+6ссз3886100 0.0 1023316
11:00+11ссз595651 0.0 10231484
14:00+12сз6860100 0.0 10221447
17:00+11сз4864100 0.0 1022579
20:00+8зсз3978100 0.1 1022238
22 сентября, ср
ср2223:00+8сз3581100 0.1 1022140
02:00+8ссз2477100 0.1 1022131
05:00+5с238036 0.0 102255
08:00+6с24765 0.0 1022155
11:00+11с45605 0.0 10221026
14:00+13с56488 0.0 10211666
17:00+12ссз465323 0.0 1021654
20:00+7ссв22736 0.0 102226
23 сентября, чт
чт2323:00+6ю11815 0.0 102110
02:00+5ююз2286100 0.0 102016
05:00+5ююз2287100 0.0 101926
08:00+7ююз3478100 0.0 1017135
11:00+12ююз456352 0.0 1015676
14:00+15юз4562100 0.0 10121196
17:00+14ю5870100 0.0 1009446
20:00+12ю61279100 0.0 1007355
24 сентября, пт
пт2423:00+13ю81676100 0.0 1003641
02:00+13ююз91772100 0.0 998744
05:00+10з7138480 7.4 9971108
08:00+9юз101882100 7.6 9971149
11:00+10зюз122181100 0.1 9961729
14:00+12з11197820 2.6 9981698
17:00+12зсз11188180 1.6 10011340
20:00+11з81582100 2.1 1004921